Regional Weather Roundup
Issued by NWS

Home | Current Version | Previous Version | Graphics & Text | Print | Product List | Glossary On
Versions: 1 2 3 4 5 6 7 8 9 10 11 12 13 14 15 16 17 18 19 20 21 22 23 24 25 26 27 28 29 30 31 32 33 34 35 36 37 38 39 40 41 42 43 44 45 46 47 48 49 50
000
ASUS44 KMEG 231900
RWRTN
TENNESSEE HOURLY STATE WEATHER ROUNDUP
NATIONAL WEATHER SERVICE MEMPHIS TN
100 PM CST TUE JAN 23 2018

TNZ002-004-019-021-049-052-054-088>092-232000-
WEST TENNESSEE

CITY           SKY/WX    TMP DP  RH WIND       PRES   REMARKS
MEMPHIS INTL   PTSUNNY   44  30  57 NW10      30.14S
NWS MEMPHIS      N/A     42 N/A N/A MISG        N/A
JACKSON        CLOUDY    41  30  65 NW13      30.12S
DYERSBURG      CLOUDY    41  28  60 NW14G20   30.13F
$$

TNZ008-025-027-028-033-062-065-066-232000-
NORTH MIDDLE TENNESSEE

CITY           SKY/WX    TMP DP  RH WIND       PRES   REMARKS
NASHVILLE      CLOUDY    45  29  53 W8        30.04S
CLARKSVILLE    CLOUDY    41  28  60 W14       30.05R
SMYRNA         CLOUDY    45  30  55 W13       30.05S
CROSSVILLE     CLOUDY    42  28  57 W14G22    29.96S
$$

TNZ061-075-076-078-094-096-097-232000-
SOUTH MIDDLE TENNESSEE

CITY           SKY/WX    TMP DP  RH WIND       PRES   REMARKS
WINCHESTER     CLOUDY    45  30  57 W9        30.02F
$$

TNZ017-018-042-046-047-232000-
NORTHEAST TENNESSEE

CITY           SKY/WX    TMP DP  RH WIND       PRES   REMARKS
TRI CITIES     FAIR      47  29  49 W14       29.89F
$$

TNZ012-013-036-069-073-074-232000-
CENTRAL EAST TENNESSEE

CITY           SKY/WX    TMP DP  RH WIND       PRES   REMARKS
KNOXVILLE      PTSUNNY   51  31  46 SW16      29.94F
OAK RIDGE      CLOUDY    50  31  48 VRB7      29.96F
$$

TNZ083-085-099-232000-
SOUTHEAST TENNESSEE

CITY           SKY/WX    TMP DP  RH WIND       PRES   REMARKS
CHATTANOOGA    FAIR      50  28  42 W8        29.99F
$$

SKY/WX REPORTED AS FAIR MEANS FEW OR NO CLOUDS BELOW
12 THOUSAND FEET.




USA.gov is the U.S. government's official web portal to all federal, state and local government web resources and services.